Knoxville, TN

7:35 AM EDT on March 27, 2017 (GMT -0400)
McGhee Tyson

Weather History for KTYS - October, 2013

Change the Weather History Date:

Friday, October 18, 2013

  Actual Average Record
Temperature  
Mean Temperature 57 °F 59 °F  
Max Temperature 66 °F 71 °F 86 °F (1938)
Min Temperature 48 °F 48 °F 30 °F (1943)
Degree Days  
Heating Degree Days 8 7  
Month to date heating degree days 22 82  
Since 1 July heating degree days 23 105  
Cooling Degree Days 0 1  
Month to date cooling degree days 51 29  
Year to date cooling degree days 1436 1516  
Growing Degree Days 7 (Base 50)    
Moisture  
Dew Point 48 °F    
Average Humidity 72    
Maximum Humidity 96    
Minimum Humidity 48    
Precipitation  
Precipitation 0.00 in 0.08 in 2.26 in (1966)
Month to date precipitation 0.91 1.41  
Year to date precipitation 56.71 38.25  
Snow  
Snow 0.00 in 0.00 in - ()
Month to date snowfall 0.0 0.0  
Since 1 July snowfall 0.0 0.0  
Since 1 September snowfall 0.0 0.0  
Snow Depth 0.00 in    
Sea Level Pressure  
Sea Level Pressure 30.00 in    
Wind  
Wind Speed 5 mph (North)    
Max Wind Speed 12 mph    
Max Gust Speed 16 mph    
Visibility 10 miles    
Events      
T = Trace of Precipitation, MM = Missing Value Source: NWS Daily Summary

Daily Weather History Graph

Daily Weather History Graph

Search for Another Location

Airport or City:

Trip Planner

Search our weather history database for the weather conditions in past years. The results will help you decide how hot, cold, wet, or windy it might be!

Date:

Astronomy

Oct. 18, 2013 Rise Set
Actual Time 7:45 AM EDT 6:56 PM EDT
Civil Twilight 7:19 AM EDT 7:21 PM EDT
Nautical Twilight 6:49 AM EDT 7:51 PM EDT
Astronomical Twilight 6:20 AM EDT 8:21 PM EDT
Moon 6:46 PM EDT (10/18) 7:19 AM EDT (10/18)
Length of Visible Light 12h 02m
Length of Day
11h 10m
Full, 100% of the Moon is Illuminated
Oct 18
Full
Oct 18
Full
Oct 26
Last Quarter
Nov 3
New
Nov 10
First Quarter

Hourly Weather History & Observations

Time (EDT) Temp. Dew Point Humidity Pressure Visibility Wind Dir Wind Speed Gust Speed Precip Events Conditions
12:53 AM 57.0 °F 50.0 °F 77% 29.99 in 10.0 mi Calm Calm - N/A   Overcast
1:53 AM 55.9 °F 51.1 °F 84% 29.99 in 10.0 mi NNE 3.5 mph - N/A   Overcast
2:53 AM 54.0 °F 50.0 °F 86% 29.99 in 10.0 mi NNE 3.5 mph - N/A   Mostly Cloudy
3:53 AM 54.0 °F 50.0 °F 86% 29.99 in 10.0 mi North 6.9 mph - N/A   Overcast
4:53 AM 52.0 °F 50.0 °F 93% 30.00 in 10.0 mi North 5.8 mph - N/A   Mostly Cloudy
5:53 AM 51.1 °F 48.0 °F 89% 30.01 in 10.0 mi North 6.9 mph - N/A   Scattered Clouds
6:53 AM 50.0 °F 48.0 °F 93% 30.02 in 10.0 mi NNE 5.8 mph - N/A   Scattered Clouds
7:53 AM 48.9 °F 46.9 °F 93% 30.04 in 10.0 mi NNE 4.6 mph - N/A   Scattered Clouds
8:53 AM 51.1 °F 48.0 °F 89% 30.06 in 10.0 mi NNE 9.2 mph - N/A   Overcast
9:53 AM 54.0 °F 48.9 °F 83% 30.06 in 10.0 mi NNE 8.1 mph - N/A   Mostly Cloudy
10:53 AM 57.0 °F 46.9 °F 69% 30.07 in 10.0 mi NNE 10.4 mph - N/A   Mostly Cloudy
11:53 AM 60.1 °F 46.0 °F 60% 30.06 in 10.0 mi NNE 6.9 mph - N/A   Overcast
12:53 PM 61.0 °F 46.9 °F 60% 30.04 in 10.0 mi NNE 4.6 mph - N/A   Overcast
1:53 PM 64.0 °F 46.9 °F 54% 30.01 in 10.0 mi NE 4.6 mph - N/A   Overcast
2:53 PM 64.9 °F 46.0 °F 50% 29.99 in 10.0 mi NW 4.6 mph - N/A   Overcast
3:53 PM 64.9 °F 46.0 °F 50% 29.97 in 10.0 mi North 5.8 mph - N/A   Mostly Cloudy
4:53 PM 64.0 °F 45.0 °F 50% 29.96 in 10.0 mi North 6.9 mph - N/A   Mostly Cloudy
5:53 PM 63.0 °F 46.0 °F 54% 29.96 in 10.0 mi North 3.5 mph - N/A   Overcast
6:53 PM 61.0 °F 46.9 °F 60% 29.96 in 10.0 mi North 3.5 mph - N/A   Scattered Clouds
7:53 PM 57.9 °F 48.0 °F 70% 29.97 in 10.0 mi Calm Calm - N/A   Scattered Clouds
8:53 PM 55.0 °F 50.0 °F 83% 29.98 in 10.0 mi Calm Calm - N/A   Scattered Clouds
9:53 PM 54.0 °F 48.9 °F 83% 29.98 in 10.0 mi Calm Calm - N/A   Partly Cloudy
10:53 PM 53.1 °F 48.9 °F 86% 30.00 in 10.0 mi Calm Calm - N/A   Mostly Cloudy
11:53 PM 55.0 °F 50.0 °F 83% 30.00 in 10.0 mi NNW 3.5 mph - N/A   Mostly Cloudy